TimeMST,TemperatureF,Dew PointF,Humidity,Sea Level PressureIn,VisibilityMPH,Wind Direction,Wind SpeedMPH,Gust SpeedMPH,PrecipitationIn,Events,Conditions,WindDirDegrees,DateUTC
12:53 AM,9.0,3.0,77,30.57,10.0,Calm,Calm,-,N/A,,Clear,0,2013-12-11 07:53:00
1:53 AM,8.1,3.0,80,30.55,10.0,Calm,Calm,-,N/A,,Clear,0,2013-12-11 08:53:00
2:53 AM,10.0,3.9,76,30.55,10.0,Calm,Calm,-,N/A,,Clear,0,2013-12-11 09:53:00
3:53 AM,9.0,1.9,73,30.55,10.0,South,4.6,-,N/A,,Clear,180,2013-12-11 10:53:00
4:53 AM,3.0,1.0,91,30.61,8.0,ESE,3.5,-,N/A,,Clear,120,2013-12-11 11:53:00
5:53 AM,3.0,-2.0,80,30.66,10.0,South,9.2,-,N/A,,Clear,170,2013-12-11 12:53:00
6:53 AM,-0.0,-4.0,83,30.70,10.0,South,6.9,-,N/A,,Clear,170,2013-12-11 13:53:00
7:53 AM,-2.0,-6.0,83,30.76,10.0,SSE,6.9,-,N/A,,Clear,150,2013-12-11 14:53:00
8:53 AM,5.0,-0.9,76,30.74,10.0,South,4.6,-,N/A,,Clear,180,2013-12-11 15:53:00
9:53 AM,12.9,3.0,65,30.71,10.0,ESE,4.6,-,N/A,,Clear,110,2013-12-11 16:53:00
10:53 AM,18.0,3.9,54,30.69,10.0,Calm,Calm,-,N/A,,Clear,0,2013-12-11 17:53:00
11:53 AM,19.0,3.9,52,30.64,10.0,NW,3.5,-,N/A,,Clear,310,2013-12-11 18:53:00
12:53 PM,21.9,3.9,46,30.61,10.0,Calm,Calm,-,N/A,,Clear,0,2013-12-11 19:53:00
1:53 PM,24.1,5.0,44,30.60,10.0,Calm,Calm,-,N/A,,Clear,0,2013-12-11 20:53:00
2:53 PM,24.1,5.0,44,30.59,10.0,Calm,Calm,-,N/A,,Clear,0,2013-12-11 21:53:00
3:53 PM,24.1,7.0,48,30.60,10.0,NNE,4.6,-,N/A,,Clear,20,2013-12-11 22:53:00
4:53 PM,19.0,8.1,62,30.68,10.0,Calm,Calm,-,N/A,,Clear,0,2013-12-11 23:53:00
5:53 PM,10.9,5.0,77,30.73,10.0,ESE,4.6,-,N/A,,Clear,110,2013-12-12 00:53:00
6:53 PM,10.0,3.9,76,30.77,10.0,South,3.5,-,N/A,,Clear,170,2013-12-12 01:53:00
7:53 PM,8.1,3.0,80,30.80,10.0,South,5.8,-,N/A,,Clear,170,2013-12-12 02:53:00
8:53 PM,3.9,-0.9,80,30.78,10.0,SE,6.9,-,N/A,,Clear,140,2013-12-12 03:53:00
9:53 PM,3.0,-2.0,80,30.77,9.0,SE,5.8,-,N/A,,Clear,140,2013-12-12 04:53:00
10:53 PM,1.9,-0.9,88,30.76,9.0,SSE,6.9,-,N/A,,Clear,150,2013-12-12 05:53:00
11:53 PM,3.0,-0.9,84,30.74,10.0,SSE,9.2,-,N/A,,Clear,160,2013-12-12 06:53:00